| time (UTC) | temp F | wind direction | speed MPH | gust MPH | rain 1hr in | rain 24hr in | rain mn in | humidity % | barometer mb |
| 20260508141430 | 72 | 218 | 1.0 | 3.0 | 0.00 | 0.00 | 0.00 | 33 | 1012.6 |
| 20260508140430 | 71 | 201 | 1.0 | 4.0 | 0.00 | 0.00 | 0.00 | 33 | 1012.7 |
| 20260508135432 | 70 | 231 | 1.0 | 3.0 | 0.00 | 0.00 | 0.00 | 34 | 1012.7 |
| 20260508134432 | 69 | 203 | 2.0 | 3.0 | 0.00 | 0.00 | 0.00 | 34 | 1012.6 |
| 20260508133432 | 68 | 261 | 1.0 | 3.0 | 0.00 | 0.00 | 0.00 | 35 | 1012.5 |
| 20260508132430 | 68 | 223 | 2.0 | 3.0 | 0.00 | 0.00 | 0.00 | 35 | 1012.3 |
| 20260508131431 | 67 | 225 | 1.0 | 2.0 | 0.00 | 0.00 | 0.00 | 37 | 1012.4 |
| 20260508130430 | 66 | 240 | 1.0 | 2.0 | 0.00 | 0.00 | 0.00 | 36 | 1012.2 |
| 20260508124432 | 63 | 253 | 0.0 | 3.0 | 0.00 | 0.00 | 0.00 | 41 | 1012.0 |
| 20260508123431 | 62 | 285 | 2.0 | 2.0 | 0.00 | 0.00 | 0.00 | 42 | 1011.9 |
| 20260508122432 | 63 | 263 | 2.0 | 2.0 | 0.00 | 0.00 | 0.00 | 40 | 1011.6 |
| 20260508121431 | 63 | 262 | 2.0 | 2.0 | 0.00 | 0.00 | 0.00 | 41 | 1011.3 |
| 20260508120431 | 64 | 276 | 1.0 | 2.0 | 0.00 | 0.00 | 0.00 | 42 | 1011.6 |
| 20260508115430 | 64 | 272 | 2.0 | 3.0 | 0.00 | 0.00 | 0.00 | 39 | 1011.7 |
| 20260508114433 | 66 | 265 | 2.0 | 2.0 | 0.00 | 0.00 | 0.00 | 37 | 1011.6 |
| 20260508113431 | 66 | 225 | 2.0 | 2.0 | 0.00 | 0.00 | 0.00 | 36 | 1011.3 |
| 20260508112430 | 67 | 215 | 0.0 | 3.0 | 0.00 | 0.00 | 0.00 | 36 | 1011.2 |
| 20260508111431 | 66 | 214 | 0.0 | 2.0 | 0.00 | 0.00 | 0.00 | 36 | 1011.1 |
| 20260508110430 | 66 | 241 | 1.0 | 2.0 | 0.00 | 0.00 | 0.00 | 36 | 1011.1 |
| 20260508105430 | 67 | 226 | 0.0 | 2.0 | 0.00 | 0.00 | 0.00 | 36 | 1011.3 |
| 20260508104433 | 67 | 189 | 1.0 | 3.0 | 0.00 | 0.00 | 0.00 | 35 | 1010.9 |
| 20260508103432 | 68 | 194 | 2.0 | 4.0 | 0.00 | 0.00 | 0.00 | 35 | 1011.1 |
| 20260508102431 | 69 | 221 | 1.0 | 4.0 | 0.00 | 0.00 | 0.00 | 35 | 1011.2 |
| 20260508100432 | 69 | 186 | 3.0 | 3.0 | 0.00 | 0.00 | 0.00 | 34 | 1011.1 |
| 20260508095430 | 70 | 185 | 2.0 | 3.0 | 0.00 | 0.00 | 0.00 | 34 | 1011.2 |
| 20260508094432 | 69 | 199 | 1.0 | 2.0 | 0.00 | 0.00 | 0.00 | 34 | 1011.0 |
| 20260508093430 | 69 | 232 | 0.0 | 3.0 | 0.00 | 0.00 | 0.00 | 34 | 1011.0 |
| 20260508092431 | 69 | 207 | 1.0 | 2.0 | 0.00 | 0.00 | 0.00 | 34 | 1011.0 |
| 20260508091430 | 70 | 189 | 1.0 | 2.0 | 0.00 | 0.00 | 0.00 | 33 | 1010.9 |
| 20260508090432 | 69 | 207 | 0.0 | 2.0 | 0.00 | 0.00 | 0.00 | 33 | 1011.0 |
| 20260508085431 | 70 | 213 | 1.0 | 2.0 | 0.00 | 0.00 | 0.00 | 33 | 1011.1 |
| 20260508083430 | 70 | 205 | 0.0 | 3.0 | 0.00 | 0.00 | 0.00 | 32 | 1010.8 |
| 20260508082430 | 71 | 188 | 1.0 | 4.0 | 0.00 | 0.00 | 0.00 | 32 | 1011.1 |
| 20260508081433 | 71 | 171 | 2.0 | 3.0 | 0.00 | 0.00 | 0.00 | 31 | 1011.5 |
| 20260508080431 | 71 | 209 | 1.0 | 4.0 | 0.00 | 0.00 | 0.00 | 32 | 1011.2 |
| 20260508075431 | 71 | 213 | 2.0 | 2.0 | 0.00 | 0.00 | 0.00 | 33 | 1011.3 |
| 20260508074431 | 71 | 198 | 2.0 | 3.0 | 0.00 | 0.00 | 0.00 | 33 | 1011.5 |
| 20260508073431 | 71 | 179 | 3.0 | 3.0 | 0.00 | 0.00 | 0.00 | 33 | 1011.7 |
| 20260508072430 | 71 | 191 | 1.0 | 2.0 | 0.00 | 0.00 | 0.00 | 33 | 1011.7 |
| 20260508071431 | 71 | 212 | 2.0 | 4.0 | 0.00 | 0.00 | 0.00 | 32 | 1011.5 |
| 20260508070431 | 71 | 231 | 2.0 | 4.0 | 0.00 | 0.00 | 0.00 | 32 | 1011.5 |
| 20260508065430 | 71 | 222 | 2.0 | 3.0 | 0.00 | 0.00 | 0.00 | 32 | 1011.7 |
| 20260508063431 | 71 | 258 | 1.0 | 3.0 | 0.00 | 0.00 | 0.00 | 30 | 1011.6 |
| 20260508062431 | 71 | 259 | 0.0 | 3.0 | 0.00 | 0.00 | 0.00 | 28 | 1011.2 |
| 20260508061430 | 72 | 185 | 2.0 | 3.0 | 0.00 | 0.00 | 0.00 | 26 | 1011.6 |
| 20260508060431 | 73 | 211 | 0.0 | 4.0 | 0.00 | 0.00 | 0.00 | 24 | 1011.5 |
| 20260508055431 | 73 | 201 | 2.0 | 5.0 | 0.00 | 0.00 | 0.00 | 22 | 1011.2 |
| 20260508054431 | 72 | 175 | 1.0 | 4.0 | 0.00 | 0.00 | 0.00 | 23 | 1011.3 |
| 20260508053431 | 73 | 175 | 1.0 | 2.0 | 0.00 | 0.00 | 0.00 | 22 | 1011.3 |
| 20260508052432 | 74 | 232 | 2.0 | 2.0 | 0.00 | 0.00 | 0.00 | 22 | 1010.8 |
| 20260508051430 | 74 | 198 | 0.0 | 4.0 | 0.00 | 0.00 | 0.00 | 21 | 1010.8 |
| 20260508050432 | 75 | 175 | 2.0 | 3.0 | 0.00 | 0.00 | 0.00 | 21 | 1010.6 |
| 20260508045432 | 76 | 206 | 2.0 | 4.0 | 0.00 | 0.00 | 0.00 | 19 | 1010.8 |
| 20260508044430 | 78 | 234 | 4.0 | 4.0 | 0.00 | 0.00 | 0.00 | 17 | 1010.5 |
| 20260508042430 | 78 | 287 | 1.0 | 2.0 | 0.00 | 0.00 | 0.00 | 18 | 1010.3 |
| 20260508041430 | 79 | 300 | 2.0 | 2.0 | 0.00 | 0.00 | 0.00 | 20 | 1010.2 |
| 20260508040432 | 80 | 294 | 1.0 | 2.0 | 0.00 | 0.00 | 0.00 | 19 | 1010.1 |
| 20260508035432 | 82 | 312 | 2.0 | 3.0 | 0.00 | 0.00 | 0.00 | 17 | 1009.7 |
| 20260508034432 | 82 | 308 | 2.0 | 3.0 | 0.00 | 0.00 | 0.00 | 17 | 1009.6 |
| 20260508033432 | 82 | 309 | 2.0 | 3.0 | 0.00 | 0.00 | 0.00 | 17 | 1009.7 |
| 20260508032433 | 83 | 264 | 3.0 | 4.0 | 0.00 | 0.00 | 0.00 | 16 | 1009.3 |
| 20260508031432 | 83 | 301 | 2.0 | 4.0 | 0.00 | 0.00 | 0.00 | 17 | 1009.3 |
| 20260508030432 | 84 | 265 | 3.0 | 6.0 | 0.00 | 0.00 | 0.00 | 15 | 1009.2 |
| 20260508025434 | 85 | 261 | 5.0 | 6.0 | 0.00 | 0.00 | 0.00 | 15 | 1009.3 |
| 20260508024431 | 86 | 253 | 5.0 | 6.0 | 0.00 | 0.00 | 0.00 | 15 | 1009.0 |
| 20260508023433 | 85 | 260 | 3.0 | 5.0 | 0.00 | 0.00 | 0.00 | 15 | 1009.0 |
| 20260508022433 | 86 | 263 | 1.0 | 5.0 | 0.00 | 0.00 | 0.00 | 15 | 1008.7 |
| 20260508021431 | 88 | 265 | 2.0 | 8.0 | 0.00 | 0.00 | 0.00 | 14 | 1008.8 |
| 20260508015432 | 89 | 252 | 2.0 | 7.0 | 0.00 | 0.00 | 0.00 | 15 | 1008.4 |
| 20260508014432 | 89 | 225 | 0.0 | 7.0 | 0.00 | 0.00 | 0.00 | 15 | 1008.2 |
| 20260508013444 | 90 | 245 | 1.0 | 7.0 | 0.00 | 0.00 | 0.00 | 14 | 1008.2 |
| 20260508012432 | 91 | 266 | 6.0 | 9.0 | 0.00 | 0.00 | 0.00 | 13 | 1008.3 |
| 20260508011434 | 92 | 278 | 4.0 | 8.0 | 0.00 | 0.00 | 0.00 | 14 | 1008.2 |
| 20260508005431 | 93 | 251 | 1.0 | 9.0 | 0.00 | 0.00 | 0.00 | 14 | 1008.0 |
| 20260508003431 | 94 | 301 | 4.0 | 10.0 | 0.00 | 0.00 | 0.00 | 13 | 1008.1 |
| 20260508002431 | 94 | 265 | 6.0 | 9.0 | 0.00 | 0.00 | 0.00 | 14 | 1008.3 |
| 20260508001431 | 93 | 34 | 2.0 | 8.0 | 0.00 | 0.00 | 0.00 | 14 | 1008.0 |
| 20260508000434 | 95 | 104 | 1.0 | 10.0 | 0.00 | 0.00 | 0.00 | 14 | 1008.0 |
| 20260507235432 | 95 | 269 | 3.0 | 6.0 | 0.00 | 0.00 | 0.00 | 14 | 1008.1 |
| 20260507231432 | 94 | 319 | 2.0 | 7.0 | 0.00 | 0.00 | 0.00 | 14 | 1008.2 |
| 20260507230432 | 94 | 7 | 3.0 | 6.0 | 0.00 | 0.00 | 0.00 | 15 | 1008.1 |
| 20260507225431 | 94 | 117 | 1.0 | 7.0 | 0.00 | 0.00 | 0.00 | 14 | 1008.4 |
| 20260507224432 | 95 | 314 | 2.0 | 13.0 | 0.00 | 0.00 | 0.00 | 15 | 1008.6 |
| 20260507223432 | 95 | 304 | 3.0 | 11.0 | 0.00 | 0.00 | 0.00 | 15 | 1008.6 |
| 20260507222431 | 96 | 323 | 4.0 | 9.0 | 0.00 | 0.00 | 0.00 | 14 | 1008.4 |
| 20260507221433 | 95 | 290 | 2.0 | 8.0 | 0.00 | 0.00 | 0.00 | 14 | 1008.6 |
| 20260507220431 | 95 | 13 | 3.0 | 6.0 | 0.00 | 0.00 | 0.00 | 14 | 1008.9 |
| 20260507214431 | 93 | 313 | 1.0 | 8.0 | 0.00 | 0.00 | 0.00 | 14 | 1009.0 |
| 20260507213431 | 95 | 356 | 4.0 | 8.0 | 0.00 | 0.00 | 0.00 | 15 | 1009.3 |
| 20260507212430 | 94 | 356 | 3.0 | 7.0 | 0.00 | 0.00 | 0.00 | 15 | 1009.4 |
| 20260507211431 | 92 | 334 | 3.0 | 10.0 | 0.00 | 0.00 | 0.00 | 15 | 1009.5 |
| 20260507205432 | 94 | 330 | 5.0 | 11.0 | 0.00 | 0.00 | 0.00 | 15 | 1009.8 |
| 20260507204431 | 93 | 234 | 5.0 | 10.0 | 0.00 | 0.00 | 0.00 | 15 | 1009.8 |
| 20260507203429 | 95 | 134 | 2.0 | 10.0 | 0.00 | 0.00 | 0.00 | 15 | 1010.0 |
| 20260507202429 | 92 | 201 | 0.0 | 6.0 | 0.00 | 0.00 | 0.00 | 16 | 1010.2 |
| 20260507201428 | 93 | 250 | 3.0 | 8.0 | 0.00 | 0.00 | 0.00 | 16 | 1010.4 |
| 20260507200427 | 94 | 241 | 2.0 | 8.0 | 0.00 | 0.00 | 0.00 | 15 | 1010.5 |
| 20260507194428 | 90 | 304 | 1.0 | 8.0 | 0.00 | 0.00 | 0.00 | 17 | 1010.9 |
| 20260507193427 | 91 | 15 | 2.0 | 6.0 | 0.00 | 0.00 | 0.00 | 16 | 1010.9 |
| 20260507192428 | 90 | 285 | 1.0 | 4.0 | 0.00 | 0.00 | 0.00 | 17 | 1011.2 |
| 20260507191429 | 89 | 237 | 0.0 | 9.0 | 0.00 | 0.00 | 0.00 | 18 | 1011.2 |
| 20260507185428 | 90 | 236 | 1.0 | 6.0 | 0.00 | 0.00 | 0.00 | 18 | 1011.8 |
| 20260507184428 | 90 | 298 | 1.0 | 6.0 | 0.00 | 0.00 | 0.00 | 18 | 1012.0 |
| 20260507183428 | 87 | 334 | 3.0 | 9.0 | 0.00 | 0.00 | 0.00 | 19 | 1011.9 |
| 20260507180427 | 87 | 329 | 3.0 | 5.0 | 0.00 | 0.00 | 0.00 | 21 | 1012.5 |
| 20260507175429 | 85 | 245 | 3.0 | 6.0 | 0.00 | 0.00 | 0.00 | 22 | 1012.4 |
| 20260507174428 | 85 | 312 | 3.0 | 5.0 | 0.00 | 0.00 | 0.00 | 24 | 1012.4 |
| 20260507173428 | 84 | 309 | 2.0 | 6.0 | 0.00 | 0.00 | 0.00 | 24 | 1012.6 |
| 20260507172429 | 83 | 348 | 2.0 | 6.0 | 0.00 | 0.00 | 0.00 | 25 | 1012.9 |
| 20260507170429 | 82 | 284 | 2.0 | 5.0 | 0.00 | 0.00 | 0.00 | 26 | 1012.9 |
| 20260507165428 | 81 | 316 | 2.0 | 8.0 | 0.00 | 0.00 | 0.00 | 27 | 1012.8 |
| 20260507164428 | 81 | 278 | 0.0 | 8.0 | 0.00 | 0.00 | 0.00 | 27 | 1012.8 |
| 20260507163427 | 80 | 246 | 6.0 | 6.0 | 0.00 | 0.00 | 0.00 | 27 | 1013.0 |
| 20260507162429 | 80 | 160 | 2.0 | 6.0 | 0.00 | 0.00 | 0.00 | 27 | 1013.1 |
| 20260507155427 | 78 | 251 | 0.0 | 5.0 | 0.00 | 0.00 | 0.00 | 28 | 1013.3 |
| 20260507154431 | 76 | 188 | 1.0 | 4.0 | 0.00 | 0.00 | 0.00 | 29 | 1013.3 |
| 20260507153427 | 75 | 254 | 3.0 | 5.0 | 0.00 | 0.00 | 0.00 | 30 | 1013.6 |
| 20260507152428 | 75 | 246 | 1.0 | 4.0 | 0.00 | 0.00 | 0.00 | 29 | 1013.4 |
| 20260507151428 | 74 | 247 | 2.0 | 3.0 | 0.00 | 0.00 | 0.00 | 29 | 1013.9 |
| 20260507150430 | 73 | 261 | 2.0 | 4.0 | 0.00 | 0.00 | 0.00 | 30 | 1013.5 |
| 20260507145427 | 70 | 180 | 2.0 | 4.0 | 0.00 | 0.00 | 0.00 | 30 | 1013.8 |
| 20260507144429 | 69 | 244 | 2.0 | 3.0 | 0.00 | 0.00 | 0.00 | 32 | 1013.6 |
| 20260507142428 | 66 | 254 | 2.0 | 3.0 | 0.00 | 0.00 | 0.00 | 35 | 1013.6 |